Cedar Island, NC

2:46 AM EDT on July 30, 2016 (GMT -0400)
Piney Island

Weather History for KNBT - December, 2013

Change the Weather History Date:

Tuesday, December 31, 2013

  Actual Average (KMRH) Record (KMRH)
Temperature  
Mean Temperature 48 °F -  
Max Temperature 52 °F 58 °F 71 °F (2015)
Min Temperature 44 °F 38 °F 15 °F (1983)
Degree Days  
Heating Degree Days 16    
Moisture  
Dew Point 40 °F    
Average Humidity 77    
Maximum Humidity 93    
Minimum Humidity 50    
Precipitation  
Precipitation 0.00 in - - ()
Sea Level Pressure  
Sea Level Pressure 30.24 in    
Wind  
Wind Speed 7 mph (NW)    
Max Wind Speed 16 mph    
Max Gust Speed 24 mph    
Averages and records for this station are not official NWS values.
T = Trace of Precipitation, MM = Missing Value Source: NWS Daily Summary

Daily Weather History Graph

Daily Weather History Graph

Search for Another Location

Airport or City:

Trip Planner

Search our weather history database for the weather conditions in past years. The results will help you decide how hot, cold, wet, or windy it might be!

Date:

Astronomy

Dec. 31, 2013 Rise Set
Actual Time 7:13 AM EST 5:04 PM EST
Civil Twilight 6:45 AM EST 5:32 PM EST
Nautical Twilight 6:14 AM EST 6:04 PM EST
Astronomical Twilight 5:43 AM EST 6:34 PM EST
Moon 6:05 AM EST (12/31) 4:36 PM EST (12/31)
Length of Visible Light 10h 46m
Length of Day
9h 50m
Waning Crescent, 1% of the Moon is Illuminated
Dec 31
Waning Crescent
Jan 1
New
Jan 7
First Quarter
Jan 15
Full
Jan 24
Last Quarter

Hourly Weather History & Observations

Time (EST) Temp. Windchill Dew Point Humidity Pressure Visibility Wind Dir Wind Speed Gust Speed Precip Events Conditions
12:56 AM 50.0 °F - 46.0 °F 86% 30.11 in - NW 3.5 mph - N/A   Clear
1:56 AM 50.0 °F - 45.0 °F 83% 30.12 in - North 3.5 mph - N/A   Clear
2:56 AM 48.9 °F - 45.0 °F 86% 30.14 in - North 3.5 mph - N/A   Clear
3:56 AM 48.9 °F - 45.0 °F 86% 30.10 in - NE 3.5 mph - N/A   Clear
4:56 AM 48.0 °F - 46.0 °F 93% 30.11 in - NNW 4.6 mph - N/A   Clear
5:56 AM 48.0 °F - 46.0 °F 93% 30.12 in - NNW 3.5 mph - N/A   Clear
6:56 AM 48.0 °F - 46.0 °F 93% 30.15 in - NNW 3.5 mph - N/A   Overcast
7:52 AM 48.2 °F - 46.4 °F 93% 30.19 in - NW 11.5 mph - N/A   Overcast
7:56 AM 48.0 °F - 46.0 °F 93% 30.20 in - NNW 12.7 mph - N/A   Overcast
8:53 AM 46.4 °F 39.8 °F 41.0 °F 81% 30.22 in - North 16.1 mph 24.2 mph N/A   Overcast
8:56 AM 46.0 °F 39.3 °F 41.0 °F 83% 30.22 in - North 16.1 mph 24.2 mph N/A   Overcast
9:33 AM 45.0 °F 38.2 °F 41.0 °F 86% 30.24 in - North 15.0 mph - N/A   Overcast
9:46 AM 45.0 °F 37.9 °F 39.9 °F 82% 30.25 in - North 16.1 mph - N/A   Overcast
9:56 AM 45.0 °F 38.2 °F 39.9 °F 82% 30.27 in - North 15.0 mph - N/A   Overcast
10:25 AM 45.0 °F 38.9 °F 39.9 °F 82% 30.25 in - North 12.7 mph - N/A   Overcast
10:31 AM 46.0 °F 40.2 °F 41.0 °F 83% 30.25 in - North 12.7 mph - N/A   Overcast
10:56 AM 45.0 °F 40.6 °F 39.9 °F 82% 30.27 in - NNE 8.1 mph - N/A   Overcast
11:18 AM 46.0 °F 42.5 °F 39.9 °F 79% 30.24 in - NE 6.9 mph - N/A   Overcast
11:56 AM 48.9 °F - 39.9 °F 71% 30.25 in - NW 8.1 mph - N/A   Clear
12:56 PM 50.0 °F - 39.0 °F 66% 30.25 in - NW 8.1 mph - N/A   Clear
1:56 PM 52.0 °F - 37.0 °F 57% 30.24 in - WNW 5.8 mph - N/A   Clear
2:56 PM 52.0 °F - 34.0 °F 50% 30.25 in - WNW 9.2 mph - N/A   Clear
3:56 PM 52.0 °F - 34.0 °F 50% 30.26 in - West 8.1 mph - N/A   Clear
4:56 PM 50.0 °F - 36.0 °F 59% 30.28 in - WNW 5.8 mph - N/A   Clear
5:56 PM 48.0 °F - 34.0 °F 58% 30.30 in - West 5.8 mph - N/A   Clear
6:56 PM 46.0 °F 44.8 °F 36.0 °F 68% 30.32 in - West 3.5 mph - N/A   Clear
7:56 PM 46.0 °F 44.8 °F 34.0 °F 63% 30.35 in - WNW 3.5 mph - N/A   Clear
8:56 PM 46.9 °F - 37.9 °F 71% 30.38 in - SW 5.8 mph - N/A   Clear
9:56 PM 46.0 °F 43.9 °F 37.9 °F 73% 30.38 in - SW 4.6 mph - N/A   Clear
10:56 PM 46.0 °F 43.9 °F 39.0 °F 76% 30.38 in - WSW 4.6 mph - N/A   Clear
11:56 PM 44.1 °F 40.8 °F 37.9 °F 79% 30.37 in - SW 5.8 mph - N/A   Clear